| time (UTC) | temp F | wind direction | speed MPH | gust MPH | rain 1hr in | rain 24hr in | rain mn in | humidity % | barometer mb |
| 20260504020503 | 64 | 273 | 3.0 | 8.0 | 0.00 | 0.00 | 0.00 | 61 | 1009.8 |
| 20260504020004 | 65 | 277 | 3.0 | 12.0 | 0.00 | 0.00 | 0.00 | 61 | 1009.9 |
| 20260504010503 | 69 | 267 | 3.0 | 7.0 | 0.00 | 0.00 | 0.00 | 53 | 1009.9 |
| 20260504010003 | 69 | 251 | 3.0 | 12.0 | 0.00 | 0.00 | 0.00 | 55 | 1009.9 |
| 20260504000504 | 70 | 225 | 5.0 | 10.0 | 0.00 | 0.00 | 0.00 | 53 | 1009.6 |
| 20260503230504 | 71 | 250 | 3.0 | 8.0 | 0.00 | 0.00 | 0.00 | 53 | 1009.6 |
| 20260503230004 | 71 | 274 | 5.0 | 10.0 | 0.00 | 0.00 | 0.00 | 53 | 1009.7 |
| 20260503220504 | 70 | 195 | 5.0 | 12.0 | 0.00 | 0.00 | 0.00 | 51 | 1010.0 |
| 20260503220004 | 70 | 268 | 5.0 | 10.0 | 0.00 | 0.00 | 0.00 | 52 | 1010.0 |
| 20260503210504 | 69 | 255 | 3.0 | 9.0 | 0.00 | 0.00 | 0.00 | 58 | 1010.0 |
| 20260503210004 | 69 | 269 | 3.0 | 9.0 | 0.00 | 0.00 | 0.00 | 58 | 1010.0 |
| 20260503200503 | 67 | 223 | 2.0 | 9.0 | 0.00 | 0.00 | 0.00 | 70 | 1010.4 |
| 20260503200004 | 67 | 214 | 4.0 | 10.0 | 0.00 | 0.00 | 0.00 | 70 | 1010.6 |
| 20260503190502 | 66 | 235 | 4.0 | 7.0 | 0.00 | 0.00 | 0.00 | 71 | 1010.5 |
| 20260503180503 | 64 | 253 | 3.0 | 6.0 | 0.00 | 0.00 | 0.00 | 74 | 1010.3 |
| 20260503180002 | 64 | 254 | 4.0 | 8.0 | 0.00 | 0.00 | 0.00 | 74 | 1010.4 |
| 20260503150503 | 56 | 289 | 2.0 | 3.0 | 0.00 | 0.00 | 0.00 | 94 | 1010.0 |
| 20260503130503 | 56 | 317 | 1.0 | 1.0 | 0.00 | 0.00 | 0.00 | 87 | 1008.7 |
| 20260503110502 | 57 | 307 | 2.0 | 3.0 | 0.00 | 0.00 | 0.00 | 87 | 1008.6 |
| 20260503090502 | 58 | 314 | 2.0 | 3.0 | 0.00 | 0.00 | 0.00 | 82 | 1008.6 |
| 20260503080503 | 58 | 336 | 2.0 | 5.0 | 0.00 | 0.00 | 0.00 | 82 | 1008.9 |
| 20260503070503 | 59 | 320 | 2.0 | 5.0 | 0.00 | 0.00 | 0.00 | 78 | 1008.8 |
| 20260503050502 | 60 | 17 | 2.0 | 6.0 | 0.00 | 0.00 | 0.00 | 78 | 1009.1 |
| 20260503050003 | 60 | 308 | 3.0 | 6.0 | 0.00 | 0.00 | 0.00 | 78 | 1009.1 |
| 20260503040503 | 61 | 343 | 2.0 | 5.0 | 0.00 | 0.00 | 0.00 | 77 | 1008.5 |
| 20260503030503 | 63 | 5 | 1.0 | 3.0 | 0.00 | 0.00 | 0.00 | 73 | 1007.7 |
| 20260503030003 | 63 | 12 | 2.0 | 6.0 | 0.00 | 0.00 | 0.00 | 71 | 1007.8 |